Weather History for KFTN - April, 2014

Change the Weather History Date:

Thursday, April 24, 2014

  Actual Average (KCOT) Record (KCOT)
Temperature  
Mean Temperature 82 °F -  
Max Temperature 95 °F 84 °F 100 °F (2002)
Min Temperature 69 °F 61 °F 51 °F (2005)
Cooling Degree Days 17    
Growing Degree Days 32 (Base 50)    
Moisture  
Dew Point 61 °F    
Average Humidity 54    
Maximum Humidity 83    
Minimum Humidity 25    
Precipitation  
Precipitation 0.00 in - - ()
Sea Level Pressure  
Sea Level Pressure 29.81 in    
Wind  
Wind Speed 8 mph (East)    
Max Wind Speed 17 mph    
Max Gust Speed 25 mph    
Visibility 10 miles    
Events      
Averages and records for this station are not official NWS values.
T = Trace of Precipitation, MM = Missing Value Source: NWS Daily Summary

Daily Weather History Graph

Daily Weather History Graph

Search for Another Location

Airport or City:

Trip Planner

Search our weather history database for the weather conditions in past years. The results will help you decide how hot, cold, wet, or windy it might be!

Date:

Astronomy

Apr. 24, 2014 Rise Set
Actual Time 7:06 AM CDT 8:10 PM CDT
Civil Twilight 6:41 AM CDT 8:35 PM CDT
Nautical Twilight 6:12 AM CDT 9:04 PM CDT
Astronomical Twilight 5:42 AM CDT 9:34 PM CDT
Moon 3:52 AM CDT 3:51 PM CDT
Length of Visible Light 13h 53m
Length of Day
13h 04m
Waning Crescent, 24% of the Moon is Illuminated
Apr 24
Waning Crescent
Apr 29
New
May 6
First Quarter
May 14
Full
May 21
Last Quarter

Hourly Weather History & Observations

Time (CDT) Temp. Heat Index Dew Point Humidity Pressure Visibility Wind Dir Wind Speed Gust Speed Precip Events Conditions
12:10 AM 77.0 °F - 62.6 °F 61% 29.74 in 10.0 mi SE 16.1 mph 25.3 mph N/A   Clear
12:30 AM 75.2 °F - 60.8 °F 61% 29.74 in 10.0 mi SE 17.3 mph 25.3 mph N/A   Clear
12:50 AM 75.2 °F - 59.0 °F 57% 29.73 in 10.0 mi SE 12.7 mph 19.6 mph N/A   Clear
1:10 AM 73.4 °F - 57.2 °F 57% 29.73 in 10.0 mi SE 11.5 mph 18.4 mph N/A   Clear
1:30 AM 73.4 °F - 57.2 °F 57% 29.74 in 10.0 mi SE 9.2 mph - N/A   Clear
1:50 AM 73.4 °F - 57.2 °F 57% 29.75 in 10.0 mi SSE 10.4 mph 18.4 mph N/A   Clear
2:10 AM 71.6 °F - 57.2 °F 60% 29.76 in 10.0 mi SSE 8.1 mph - N/A   Clear
2:30 AM 71.6 °F - 57.2 °F 60% 29.76 in 10.0 mi SSE 8.1 mph - N/A   Clear
2:50 AM 71.6 °F - 59.0 °F 64% 29.75 in 10.0 mi SE 5.8 mph - N/A   Clear
3:10 AM 69.8 °F - 59.0 °F 68% 29.75 in 10.0 mi ESE 3.5 mph - N/A   Partly Cloudy
3:30 AM 69.8 °F - 59.0 °F 68% 29.75 in 10.0 mi ESE 3.5 mph - N/A   Mostly Cloudy
3:50 AM 69.8 °F - 59.0 °F 68% 29.75 in 10.0 mi East 5.8 mph - N/A   Overcast
4:10 AM 69.8 °F - 59.0 °F 68% 29.75 in 10.0 mi SE 6.9 mph - N/A   Overcast
4:30 AM 71.6 °F - 60.8 °F 69% 29.76 in 10.0 mi SSE 4.6 mph - N/A   Overcast
4:50 AM 71.6 °F - 62.6 °F 73% 29.75 in 10.0 mi SSE 8.1 mph - N/A   Overcast
5:10 AM 71.6 °F - 64.4 °F 78% 29.74 in 10.0 mi SSE 9.2 mph - N/A   Overcast
5:30 AM 71.6 °F - 64.4 °F 78% 29.76 in 10.0 mi SE 4.6 mph - N/A   Overcast
5:50 AM 71.6 °F - 64.4 °F 78% 29.76 in 10.0 mi SE 5.8 mph - N/A   Overcast
6:10 AM 71.6 °F - 64.4 °F 78% 29.77 in 10.0 mi SE 5.8 mph - N/A   Overcast
6:30 AM 71.6 °F - 64.4 °F 78% 29.77 in 10.0 mi SE 5.8 mph - N/A   Overcast
6:50 AM 71.6 °F - 66.2 °F 83% 29.77 in 10.0 mi SE 5.8 mph - N/A   Overcast
7:10 AM 71.6 °F - 66.2 °F 83% 29.78 in 10.0 mi SSE 5.8 mph - N/A   Overcast
7:30 AM 71.6 °F - 66.2 °F 83% 29.79 in 10.0 mi SE 4.6 mph - N/A   Overcast
7:50 AM 71.6 °F - 66.2 °F 83% 29.83 in 9.0 mi Calm Calm - N/A   Overcast
8:10 AM 71.6 °F - 66.2 °F 83% 29.83 in 10.0 mi Calm Calm - N/A   Overcast
8:30 AM 73.4 °F - 66.2 °F 78% 29.83 in 10.0 mi SE 3.5 mph - N/A   Overcast
8:50 AM 73.4 °F - 66.2 °F 78% 29.82 in 10.0 mi SE 6.9 mph - N/A   Overcast
9:10 AM 73.4 °F - 64.4 °F 73% 29.85 in 10.0 mi ENE 3.5 mph - N/A   Overcast
9:30 AM 73.4 °F - 64.4 °F 73% 29.85 in 10.0 mi NNE 4.6 mph - N/A   Mostly Cloudy
9:50 AM 75.2 °F - 66.2 °F 73% 29.85 in 10.0 mi Calm Calm - N/A   Overcast
10:10 AM 75.2 °F - 66.2 °F 73% 29.86 in 10.0 mi Calm Calm - N/A   Mostly Cloudy
10:30 AM 77.0 °F - 66.2 °F 69% 29.86 in 10.0 mi Calm Calm - N/A   Mostly Cloudy
10:50 AM 77.0 °F - 66.2 °F 69% 29.87 in 10.0 mi WNW 3.5 mph - N/A   Partly Cloudy
11:10 AM 77.0 °F - 66.2 °F 69% 29.88 in 10.0 mi NW 3.5 mph - N/A   Partly Cloudy
11:30 AM 80.6 °F 82.7 °F 66.2 °F 61% 29.88 in 10.0 mi North 6.9 mph - N/A   Partly Cloudy
11:50 AM 80.6 °F 82.7 °F 66.2 °F 61% 29.88 in 10.0 mi WNW 4.6 mph - N/A   Partly Cloudy
12:10 PM 82.4 °F 83.9 °F 64.4 °F 54% 29.88 in 10.0 mi NNE 6.9 mph - N/A   Clear
12:30 PM 84.2 °F 85.6 °F 64.4 °F 51% 29.87 in 10.0 mi North 6.9 mph - N/A   Partly Cloudy
12:50 PM 86.0 °F 87.3 °F 64.4 °F 48% 29.86 in 10.0 mi NNE 6.9 mph - N/A   Clear
1:10 PM 87.8 °F 89.4 °F 64.4 °F 46% 29.86 in 10.0 mi NNW 9.2 mph - N/A   Clear
1:30 PM 87.8 °F 89.4 °F 64.4 °F 46% 29.85 in 10.0 mi North 9.2 mph 17.3 mph N/A   Clear
1:50 PM 89.6 °F 90.1 °F 62.6 °F 40% 29.85 in 10.0 mi NE 8.1 mph - N/A   Clear
2:10 PM 89.6 °F 89.5 °F 60.8 °F 38% 29.84 in 10.0 mi NNE 11.5 mph 18.4 mph N/A   Clear
2:30 PM 91.4 °F 91.4 °F 60.8 °F 36% 29.84 in 10.0 mi NNE 10.4 mph 19.6 mph N/A   Clear
2:50 PM 91.4 °F 91.4 °F 60.8 °F 36% 29.83 in 10.0 mi NNE 9.2 mph 16.1 mph N/A   Clear
3:10 PM 93.2 °F 92.6 °F 59.0 °F 32% 29.83 in 10.0 mi North 11.5 mph 17.3 mph N/A   Clear
3:30 PM 93.2 °F 91.9 °F 57.2 °F 30% 29.83 in 10.0 mi North 9.2 mph 19.6 mph N/A   Clear
3:50 PM 93.2 °F 91.9 °F 57.2 °F 30% 29.82 in 10.0 mi North 10.4 mph 20.7 mph N/A   Clear
4:10 PM 93.2 °F 91.9 °F 57.2 °F 30% 29.81 in 10.0 mi NNE 10.4 mph 16.1 mph N/A   Clear
4:30 PM 93.2 °F 91.3 °F 55.4 °F 28% 29.80 in 10.0 mi NE 8.1 mph 18.4 mph N/A   Clear
4:50 PM 93.2 °F 91.3 °F 55.4 °F 28% 29.79 in 10.0 mi Calm Calm - N/A   Clear
5:10 PM 95.0 °F 93.0 °F 55.4 °F 26% 29.78 in 10.0 mi North 6.9 mph - N/A   Clear
5:30 PM 95.0 °F 92.7 °F 53.6 °F 25% 29.78 in 10.0 mi NNE 3.5 mph - N/A   Clear
5:50 PM 95.0 °F 93.0 °F 55.4 °F 26% 29.77 in 10.0 mi East 9.2 mph - N/A   Clear
6:10 PM 95.0 °F 93.0 °F 55.4 °F 26% 29.77 in 10.0 mi SE 10.4 mph - N/A   Clear
6:30 PM 95.0 °F 93.0 °F 55.4 °F 26% 29.77 in 10.0 mi ESE 5.8 mph - N/A   Clear
6:50 PM 93.2 °F 91.3 °F 55.4 °F 28% 29.77 in 10.0 mi East 11.5 mph - N/A   Clear
7:10 PM 93.2 °F 91.3 °F 55.4 °F 28% 29.77 in 10.0 mi ESE 8.1 mph - N/A   Clear
7:30 PM 91.4 °F 89.4 °F 55.4 °F 29% 29.78 in 10.0 mi East 6.9 mph - N/A   Clear
7:50 PM 91.4 °F 89.4 °F 55.4 °F 29% 29.78 in 10.0 mi ESE 9.2 mph - N/A   Clear
8:10 PM 89.6 °F 88.9 °F 59.0 °F 36% 29.79 in 10.0 mi ESE 11.5 mph 16.1 mph N/A   Clear
8:30 PM 86.0 °F 85.4 °F 59.0 °F 40% 29.80 in 10.0 mi ESE 9.2 mph - N/A   Clear
8:50 PM 84.2 °F 83.8 °F 59.0 °F 42% 29.81 in 10.0 mi ESE 6.9 mph - N/A   Clear
9:10 PM 84.2 °F 83.8 °F 59.0 °F 42% 29.83 in 10.0 mi ESE 5.8 mph - N/A   Clear
9:30 PM 82.4 °F 82.0 °F 57.2 °F 42% 29.84 in 10.0 mi ESE 5.8 mph - N/A   Clear
9:50 PM 82.4 °F 82.5 °F 59.0 °F 45% 29.85 in 10.0 mi ESE 6.9 mph - N/A   Clear
10:30 PM 80.6 °F 81.5 °F 60.8 °F 51% 29.87 in 10.0 mi ESE 6.9 mph - N/A   Clear
10:50 PM 80.6 °F 81.5 °F 60.8 °F 51% 29.88 in 10.0 mi ESE 6.9 mph - N/A   Clear
11:10 PM 78.8 °F - 60.8 °F 54% 29.89 in 10.0 mi East 6.9 mph - N/A   Clear
11:30 PM 77.0 °F - 60.8 °F 57% 29.90 in 10.0 mi East 5.8 mph - N/A   Clear
11:50 PM 77.0 °F - 62.6 °F 61% 29.90 in 10.0 mi ESE 8.1 mph - N/A   Clear